Find Starlink 36885

NORAD ID: 68049 Int'l Des: 2026-041 Owner: SPXS Country: US Constellation: starlink operational
LEOCIRCULAR

Live Position

Loading 3D Globe...

About Starlink 36885

Description loading...

Upcoming Passes

Passes for default location (London). Set your location on the main map for personalized predictions.

Altitude History

Loading altitude history...

Two-Line Element Set

1 68049U 26041K 26106.91668981 -.01775197 00000-0 -44976-1 0 9993
2 68049 53.1597 233.0082 0001212 80.3410 201.0644 15.42279171 5752
Epoch: Apr 16, 2026 • Age: 7 hours

Current Status

Altitude 448.3 km
Velocity 7.65 km/s
Sub-Earth Point 52.62°N, 54.27°E
Launch Date Mar 2, 2026
Age 0.1 years
Type internet

Technical Details

Classification Payload
Mass 575.00 kg
Dry Mass 530.00 kg
Total Mass 575.00 kg
Length 0.30 m
Diameter 4.10 m
Span 29.00 m
Shape Box + pan
Manufacturer SPXS
Bus Type Starlink V2MO
Phase Status In Orbit
Owner/State SPXS/US

Most Searched